TAX94MB LPPR-LPFR

Flight info

Callsign TAX94MB
Flight time N/A
Altitude 37000
Route MANIK DCT INBOM DCT ALAGU ALAGU8A/28
Aircraft A343/H-SDE2E3FGHIJ4J5M1RWXY/LB1D1

Departure

Time N/A
Airport Francisco de Sá Carneiro Airport (LPPR)

Arrival

Time 2026-05-03 20:28
Airport Faro - Gago Coutinho International Airport (LPFR)
Time Latitude Longitude Altitude Speed Heading
2026-05-03 20:15 37.56557 -7.68190 13259 ft 357 kts 177°
2026-05-03 20:15 37.54097 -7.67846 12809 ft 354 kts 177°
2026-05-03 20:15 37.51657 -7.67505 12365 ft 352 kts 177°
2026-05-03 20:15 37.49235 -7.67167 11918 ft 349 kts 177°
2026-05-03 20:16 37.46827 -7.66831 11480 ft 347 kts 177°
2026-05-03 20:16 37.44440 -7.66498 11031 ft 344 kts 177°
2026-05-03 20:16 37.42071 -7.66168 10671 ft 340 kts 176°
2026-05-03 20:16 37.39765 -7.65845 10549 ft 327 kts 176°
2026-05-03 20:17 37.37549 -7.65534 10448 ft 314 kts 177°
2026-05-03 20:17 37.35414 -7.65237 10322 ft 304 kts 177°
2026-05-03 20:17 37.33349 -7.64947 10195 ft 295 kts 177°
2026-05-03 20:17 37.31338 -7.64668 10052 ft 287 kts 177°
2026-05-03 20:18 37.29363 -7.64397 9749 ft 286 kts 177°
2026-05-03 20:18 37.27386 -7.64126 9395 ft 285 kts 177°
2026-05-03 20:18 37.25427 -7.63855 9091 ft 282 kts 176°
2026-05-03 20:18 37.23477 -7.63587 8792 ft 281 kts 176°
2026-05-03 20:19 37.21536 -7.63319 8482 ft 281 kts 176°
2026-05-03 20:19 37.19596 -7.63050 8184 ft 280 kts 176°
2026-05-03 20:19 37.17662 -7.62782 7884 ft 279 kts 176°
2026-05-03 20:19 37.15736 -7.62516 7584 ft 278 kts 176°
2026-05-03 20:20 37.13818 -7.62251 7278 ft 277 kts 176°
2026-05-03 20:20 37.11905 -7.61986 6977 ft 276 kts 177°
2026-05-03 20:20 37.09995 -7.61725 6656 ft 276 kts 176°
2026-05-03 20:20 37.08097 -7.61747 6263 ft 271 kts 194°
2026-05-03 20:21 37.06325 -7.62493 5891 ft 267 kts 206°
2026-05-03 20:21 37.04628 -7.63432 5536 ft 266 kts 207°
2026-05-03 20:21 37.02967 -7.64366 5187 ft 265 kts 206°
2026-05-03 20:21 37.01292 -7.65301 4860 ft 263 kts 206°
2026-05-03 20:22 36.99649 -7.66287 4488 ft 259 kts 213°
2026-05-03 20:22 36.98363 -7.67773 4244 ft 247 kts 240°
2026-05-03 20:22 36.97792 -7.69709 4067 ft 233 kts 265°
2026-05-03 20:22 36.97876 -7.71687 3892 ft 225 kts 282°
2026-05-03 20:23 36.98201 -7.73554 3612 ft 214 kts 282°
2026-05-03 20:23 36.98437 -7.75320 3318 ft 199 kts 279°
2026-05-03 20:23 36.98657 -7.76972 3042 ft 186 kts 281°
2026-05-03 20:23 36.98877 -7.78499 2831 ft 172 kts 281°
2026-05-03 20:24 36.99079 -7.79929 2567 ft 162 kts 282°
2026-05-03 20:24 36.99268 -7.81268 2350 ft 151 kts 282°
2026-05-03 20:24 36.99389 -7.82124 2208 ft 145 kts 282°
2026-05-03 20:24 36.99557 -7.83315 2031 ft 138 kts 284°
2026-05-03 20:25 36.99723 -7.84475 1837 ft 133 kts 283°
2026-05-03 20:25 36.99883 -7.85598 1666 ft 130 kts 281°
2026-05-03 20:25 37.00034 -7.86673 1487 ft 121 kts 283°
2026-05-03 20:25 37.00180 -7.87700 1327 ft 119 kts 282°
2026-05-03 20:26 37.00326 -7.88726 1166 ft 120 kts 281°
2026-05-03 20:26 37.00472 -7.89753 1003 ft 119 kts 281°
2026-05-03 20:26 37.00618 -7.90778 846 ft 120 kts 279°
2026-05-03 20:26 37.00763 -7.91804 680 ft 120 kts 278°
2026-05-03 20:27 37.00909 -7.92832 516 ft 119 kts 278°
2026-05-03 20:27 37.01053 -7.93847 365 ft 118 kts 277°
2026-05-03 20:27 37.01200 -7.94858 207 ft 118 kts 278°
2026-05-03 20:27 37.01342 -7.95863 47 ft 117 kts 278°
2026-05-03 20:28 37.01466 -7.96753 29 ft 81 kts 280°
2026-05-03 20:28 37.01546 -7.97324 25 ft 58 kts 279°
2026-05-03 20:28 37.01597 -7.97692 22 ft 24 kts 281°
2026-05-03 20:28 37.01621 -7.97828 25 ft 7 kts 286°
2026-05-03 20:29 37.01645 -7.97855 27 ft 4 kts 346°
2026-05-03 20:29 37.01680 -7.97846 29 ft 6 kts 26°
2026-05-03 20:29 37.01725 -7.97803 27 ft 10 kts 46°
2026-05-03 20:29 37.01759 -7.97715 29 ft 13 kts 71°
2026-05-03 20:30 37.01772 -7.97593 26 ft 16 kts 97°
2026-05-03 20:30 37.01750 -7.97445 25 ft 19 kts 100°
2026-05-03 20:30 37.01727 -7.97285 28 ft 17 kts 100°
2026-05-03 20:30 37.01713 -7.97188 28 ft 12 kts 100°
2026-05-03 20:31 37.01701 -7.97102 26 ft 2 kts 100°
2026-05-03 20:31 37.01698 -7.97084 27 ft 4 kts 100°
2026-05-03 20:31 37.01692 -7.97040 26 ft 7 kts 99°
2026-05-03 20:31 37.01682 -7.96969 26 ft 10 kts 99°
2026-05-03 20:32 37.01668 -7.96870 25 ft 13 kts 100°
2026-05-03 20:32 37.01651 -7.96750 27 ft 15 kts 100°
2026-05-03 20:32 37.01632 -7.96623 25 ft 11 kts 100°
2026-05-03 20:32 37.01643 -7.96553 30 ft 7 kts 45°
2026-05-03 20:33 37.01698 -7.96530 27 ft 10 kts 10°
2026-05-03 20:33 37.01752 -7.96523 28 ft 6 kts 359°
2026-05-03 20:33 37.01785 -7.96549 27 ft 5 kts 326°
2026-05-03 20:33 37.01806 -7.96546 28 ft 6 kts
2026-05-03 20:34 37.01848 -7.96537 25 ft 5 kts 10°
2026-05-03 20:34 37.01863 -7.96534 28 ft 0 kts